Regional Weather Roundup
Issued by NWS

Home | Current Version | Previous Version | Text Only | Print | Product List | Glossary Off
Versions: 1 2 3 4 5 6 7 8 9 10 11 12 13 14 15 16 17 18 19 20 21 22 23 24 25 26 27 28 29 30 31 32 33 34 35 36 37 38 39 40 41 42 43 44 45 46 47 48

000
ASUS45 KSLC 280110
RWRUT

UTAH REGIONAL WEATHER ROUNDUP
NATIONAL WEATHER SERVICE SALT LAKE CITY UT
700 PM MDT WED AUG 27 2014

UTZ001>011-023>025-280200-

NORTHERN UTAH

CITY           SKY/WX    TMP DP  RH WIND       PRES   REMARKS
HILL AFB       MOSUNNY   72  48  42 W3        30.22S
LOGAN          PTSUNNY   72  53  51 SW5       30.19R
OGDEN          MOSUNNY   73  45  36 W5        30.20S
PROVO AIRPORT  NOT AVBL
SALT LAKE CITY PTSUNNY   75  46  35 CALM      30.19S
VERNAL         CLOUDY    58  54  86 CALM      30.26S
WENDOVER       SUNNY     81  43  26 SE9       30.16F
HEBER CITY     PTSUNNY   57  50  77 W5        30.30S
WEST JORDAN    SUNNY     73  52  46 CALM      30.22F

$$

UTZ012>022-026-027-280200-

SOUTHERN UTAH

CITY           SKY/WX    TMP DP  RH WIND       PRES   REMARKS
BRYCE CANYON   MOSUNNY   64  38  38 NW16      30.37S
CEDAR CITY     MOSUNNY   75  39  27 N8        30.23F
MILFORD        MOSUNNY   77  42  28 NE14      30.21S
MOAB/CYNLANDS  CLOUDY    73  42  32 N6        30.17S
PRICE          PTSUNNY   63  52  67 W3        30.27S
ST GEORGE      MOCLDY    90  46  22 W5        30.05F

$$

REGIONAL REPORTS     COLORADO/ARIZONA

CITY           SKY/WX    TMP DP  RH WIND       PRES   REMARKS
CRAIG, CO      MOCLDY    57  48  72 CALM      30.26S
GRAND JUNCTION CLOUDY    62  53  72 N6        30.22R
RIFLE          LGT RAIN  61  53  75 SE6       30.24R
MONTROSE       CLOUDY    63  45  51 SE9       30.29F
CORTEZ         NOT AVBL
PAGE, AZ       MOSUNNY   82  48  30 N6        30.14S
GRAND CANYON   MOSUNNY   72  37  28 N10       30.31S
KINGMAN        MOSUNNY   88  40  18 W13       30.08F
FLAGSTAFF      PTSUNNY   68  46  45 SW9       30.34S

$$

REGIONAL REPORTS    NEVADA/IDAHO/WYOMING

CITY           SKY/WX    TMP DP  RH WIND       PRES   REMARKS
LAS VEGAS, NV  MOSUNNY   96  31  10 VRB3      29.95F HX  90
ELY            SUNNY     75  35  23 NE8       30.28S
ELKO           SUNNY     81  32  17 S10       30.18F
POCATELLO, ID  MOSUNNY   78  44  29 W15       30.16S
BURLEY         SUNNY     76  50  40 W7        30.13F
EVANSTON, WY   CLOUDY    54  48  80 SW9       30.35R
ROCK SPRINGS   CLOUDY    51  49  92 W12       30.29F

$$



USA.gov is the U.S. government's official web portal to all federal, state and local government web resources and services.